This demonstration page uses our WeatherBlox Daily Observations layout. Learn more.

Left ArrowRight Arrow

39.01783, -85.05884

Hourly Observations for September 27, 2021

Temp ( °F °C ) Dew Point ( °F °C ) Humidity (%) Winds ( mph kmh ) Pressure ( in mb ) Visibility ( mi km ) Precip ( " mm )
12:52 am 00:52 Mostly Clear 59 15 49 9.4 69 69 SSW 9 15 30.01 1016 10 16 N/A
1:52 am 01:52 Mostly Clear 58 14.4 48 8.9 70 70 SSW 8 13 30.02 1017 10 16 N/A
2:52 am 02:52 Partly Cloudy 56 13.3 48 8.9 75 75 S 7 11 30.03 1017 10 16 N/A
3:52 am 03:52 Mostly Clear 57 13.9 48 8.9 72 72 SSW 8 13 30.02 1017 10 16 N/A
4:52 am 04:52 Partly Cloudy 57 13.9 48 8.9 72 72 SSW 10 17 30.01 1016 10 16 N/A
5:52 am 05:52 Partly Cloudy 56 13.3 49 9.4 77 77 S 9 15 30.01 1016 10 16 N/A
6:52 am 06:52 Mostly Clear 56 13.3 48 8.9 75 75 SSW 9 15 30.01 1016 10 16 N/A
7:52 am 07:52 Partly Cloudy 57 13.9 49 9.4 74 74 S 12 19 30.02 1017 10 16 N/A
8:52 am 08:52 Mostly Sunny 60 15.6 50 10 70 70 SSW 12 19 30.01 1016 10 16 N/A
9:52 am 09:52 Sunny 65 18.3 52 11.1 63 63 SW 15 24 30.01 1016 10 16 N/A
10:52 am 10:52 Sunny 70 21.1 54 12.2 57 57 SW 14 22 30.00 1016 10 16 N/A
11:52 am 11:52 Mostly Sunny 74 23.3 55 12.8 52 52 SSW 15 24 29.98 1015 10 16 N/A
12:52 pm 12:52 Sunny 79 26.1 56 13.3 45 45 SW 13 20 29.96 1015 10 16 N/A
1:52 pm 13:52 Sunny 81 27.2 56 13.3 42 42 SW 14 22 29.93 1014 10 16 N/A
2:52 pm 14:52 Sunny 83 28.3 56 13.3 40 40 SW 18 30 29.91 1013 10 16 N/A
3:52 pm 15:52 Mostly Sunny 83 28.3 56 13.3 40 40 SW 20 31 29.89 1012 10 16 N/A
4:52 pm 16:52 Partly Cloudy 81 27.2 56 13.3 42 42 SSW 15 24 29.88 1012 10 16 N/A
5:52 pm 17:52 Partly Cloudy 81 27.2 57 13.9 44 44 SW 12 19 29.88 1012 10 16 N/A
6:52 pm 18:52 Mostly Sunny 77 25 58 14.4 52 52 SSW 8 13 29.89 1012 10 16 N/A
7:52 pm 19:52 Mostly Clear 75 23.9 59 15 58 58 SSW 9 15 29.90 1012 10 16 N/A
8:52 pm 20:52 Partly Cloudy 73 22.8 60 15.6 64 64 SW 8 13 29.91 1013 10 16 N/A
9:52 pm 21:52 Mostly Clear 71 21.7 60 15.6 68 68 SSW 10 17 29.92 1013 10 16 N/A
10:52 pm 22:52 Mostly Cloudy 71 21.7 60 15.6 68 68 SW 10 17 29.91 1013 10 16 N/A
11:52 pm 23:52 Mostly Cloudy 71 21.7 59 15 66 66 SW 9 15 29.92 1013 10 16 N/A

Powered by AerisWeather